This is the latest recevied weather packets stored in our database for station/object HS4AS-1. If no packets are shown the sender has not sent any weather packets the latest 10 day(s).
| Time | Temp. | Humidity | Pressure | Rain* | Wind** | Luminosity | Snow |
|---|---|---|---|---|---|---|---|
| 1778136985 | 37.22° C | 99% | 960 hPa | - | - | - | - |
| 1778136374 | 37.22° C | 90% | 960 hPa | - | - | - | - |
| 1778135762 | 37.22° C | 90% | 961 hPa | - | - | - | - |
| 1778135151 | 37.22° C | 90% | 961 hPa | - | - | - | - |
| 1778134539 | 37.22° C | 99% | 961 hPa | - | - | - | - |
| 1778133928 | 37.22° C | 99% | 962 hPa | - | - | - | - |
| 1778133316 | 36.11° C | 99% | 962 hPa | - | - | - | - |
| 1778132704 | 36.11° C | 99% | 963 hPa | - | - | - | - |
| 1778132093 | 36.67° C | 99% | 963 hPa | - | - | - | - |
| 1778131481 | 37.78° C | 90% | 963 hPa | - | - | - | - |
| 1778130869 | 38.33° C | 73% | 962 hPa | - | - | - | - |
| 1778130258 | 38.89° C | 70% | 962 hPa | - | - | - | - |
| 1778129646 | 38.89° C | 71% | 962 hPa | - | - | - | - |
| 1778129033 | 38.89° C | 80% | 962 hPa | - | - | - | - |
| 1778128419 | 38.33° C | 86% | 963 hPa | - | - | - | - |
| 1778127808 | 37.78° C | 92% | 963 hPa | - | - | - | - |
| 1778127196 | 36.67° C | 99% | 963 hPa | - | - | - | - |
| 1778126585 | 36.11° C | 99% | 963 hPa | - | - | - | - |
| 1778125973 | 36.11° C | 99% | 963 hPa | - | - | - | - |
| 1778125361 | 37.22° C | 99% | 963 hPa | - | - | - | - |
| 1778124750 | 36.67° C | 99% | 963 hPa | - | - | - | - |
| 1778124138 | 36.11° C | 99% | 964 hPa | - | - | - | - |
| 1778123516 | 36.11° C | 99% | 964 hPa | - | - | - | - |
| 1778122905 | 35.56° C | 99% | 964 hPa | - | - | - | - |
| 1778122293 | 35° C | 99% | 964 hPa | - | - | - | - |
* Rain since midnight (hover to see other rain measurements)
** Current wind speed in m/s (hover to see current wind gust speed)